Fergus Falls, MN

5:42 AM CST on December 11, 2017 (GMT -0600)
Fergus Falls Municipal-Mickelson

Weather History for KFFM - March, 2013

Change the Weather History Date:

Saturday, March 16, 2013

  Actual Average Record
Temperature  
Mean Temperature 5 °F -  
Max Temperature 19 °F 35 °F 73 °F (2012)
Min Temperature -9 °F 15 °F -9 °F (2013)
Degree Days  
Heating Degree Days 60    
Moisture  
Dew Point -3 °F    
Average Humidity 79    
Maximum Humidity 86    
Minimum Humidity 67    
Precipitation  
Precipitation 0.00 in - - ()
Sea Level Pressure  
Sea Level Pressure 30.19 in    
Wind  
Wind Speed 8 mph (NNW)    
Max Wind Speed 13 mph    
Max Gust Speed -    
Visibility 10 miles    
Events Snow    
Averages and records for this station are not official NWS values.
T = Trace of Precipitation, MM = Missing Value Source: NWS Daily Summary

Daily Weather History Graph

Daily Weather History Graph

Search for Another Location

Airport or City:

Trip Planner

Search our weather history database for the weather conditions in past years. The results will help you decide how hot, cold, wet, or windy it might be!

Date:

Astronomy

Mar. 16, 2013 Rise Set
Actual Time 7:34 AM CDT 7:32 PM CDT
Civil Twilight 7:04 AM CDT 8:02 PM CDT
Nautical Twilight 6:30 AM CDT 8:37 PM CDT
Astronomical Twilight 5:54 AM CDT 9:13 PM CDT
Moon 9:48 AM CDT (3/16) 12:02 AM CDT (3/16)
Length of Visible Light 12h 57m
Length of Day
11h 57m
Waxing Crescent, 23% of the Moon is Illuminated
Mar 16
Waxing Crescent
Mar 19
First Quarter
Mar 27
Full
Apr 2
Last Quarter
Apr 10
New

Hourly Weather History & Observations

Time (CDT) Temp. Windchill Dew Point Humidity Pressure Visibility Wind Dir Wind Speed Gust Speed Precip Events Conditions
12:33 AM 19.4 °F 10.4 °F 15.8 °F 86% 30.00 in 10.0 mi North 6.9 mph - N/A   Overcast
12:53 AM 17.6 °F 8.2 °F 14.0 °F 86% 30.02 in 10.0 mi North 6.9 mph - N/A   Overcast
1:13 AM 17.6 °F 7.3 °F 12.2 °F 79% 30.02 in 10.0 mi North 8.1 mph - N/A   Overcast
1:33 AM 15.8 °F 5.1 °F 10.4 °F 79% 30.03 in 5.0 mi North 8.1 mph - N/A Snow Light Snow
1:53 AM 14.0 °F 2.0 °F 10.4 °F 86% 30.03 in 10.0 mi North 9.2 mph - N/A Snow Light Snow
2:13 AM 12.2 °F 0.7 °F 8.6 °F 85% 30.04 in 10.0 mi North 8.1 mph - N/A Snow Light Snow
2:33 AM 12.2 °F 1.7 °F 6.8 °F 79% 30.05 in 10.0 mi North 6.9 mph - N/A   Scattered Clouds
2:53 AM 10.4 °F -0.4 °F 5.0 °F 79% 30.06 in 10.0 mi North 6.9 mph - N/A   Clear
3:13 AM 8.6 °F -2.6 °F 3.2 °F 79% 30.06 in 10.0 mi North 6.9 mph - N/A   Clear
3:53 AM 6.8 °F -8.6 °F 1.4 °F 79% 30.09 in 10.0 mi North 11.5 mph - N/A   Clear
4:13 AM 6.8 °F -8.6 °F 1.4 °F 79% 30.10 in 10.0 mi North 11.5 mph - N/A   Clear
4:53 AM 3.2 °F -13.9 °F -0.4 °F 85% 30.12 in 10.0 mi North 12.7 mph - N/A   Clear
5:33 AM 3.2 °F -9.1 °F -0.4 °F 85% 30.14 in 10.0 mi North 6.9 mph - N/A   Clear
5:53 AM 3.2 °F -9.1 °F -2.2 °F 78% 30.14 in 10.0 mi North 6.9 mph - N/A   Clear
6:14 AM 1.4 °F -12.5 °F -2.2 °F 85% 30.15 in 10.0 mi North 8.1 mph - N/A   Clear
6:33 AM -0.4 °F -12.0 °F -4.0 °F 85% 30.16 in 10.0 mi North 5.8 mph - N/A   Clear
6:53 AM -2.2 °F -15.6 °F -5.8 °F 85% 30.17 in 10.0 mi North 6.9 mph - N/A   Clear
7:14 AM -2.2 °F -14.2 °F -7.6 °F 78% 30.18 in 10.0 mi North 5.8 mph - N/A   Clear
7:33 AM -5.8 °F -16.7 °F -9.4 °F 84% 30.19 in 4.0 mi NW 4.6 mph - N/A   Clear
7:53 AM -7.6 °F -25.7 °F -11.2 °F 84% 30.20 in 10.0 mi NW 10.4 mph - N/A   Clear
8:13 AM -9.4 °F -29.8 °F -14.8 °F 77% 30.20 in 10.0 mi NW 12.7 mph - N/A   Clear
8:33 AM -7.6 °F -26.6 °F -13.0 °F 77% 30.20 in 10.0 mi NW 11.5 mph - N/A   Clear
8:53 AM -7.6 °F -25.7 °F -11.2 °F 84% 30.21 in 10.0 mi NNW 10.4 mph - N/A   Clear
9:14 AM -5.8 °F -21.2 °F -9.4 °F 84% 30.21 in 10.0 mi NNW 8.1 mph - N/A   Clear
9:33 AM -5.8 °F -22.4 °F -9.4 °F 84% 30.21 in 10.0 mi NNW 9.2 mph - N/A   Clear
9:53 AM -2.2 °F -18.0 °F -7.6 °F 78% 30.21 in 10.0 mi NW 9.2 mph - N/A   Clear
10:13 AM -2.2 °F -18.0 °F -7.6 °F 78% 30.22 in 10.0 mi NW 9.2 mph - N/A   Clear
10:33 AM -2.2 °F -19.9 °F -7.6 °F 78% 30.22 in 10.0 mi NW 11.5 mph - N/A   Clear
10:53 AM -2.2 °F -19.9 °F -7.6 °F 78% 30.22 in 10.0 mi NW 11.5 mph - N/A   Clear
11:13 AM -0.4 °F -15.7 °F -5.8 °F 78% 30.22 in 10.0 mi NW 9.2 mph - N/A   Clear
11:33 AM -0.4 °F -15.7 °F -5.8 °F 78% 30.23 in 10.0 mi NW 9.2 mph - N/A   Scattered Clouds
11:53 AM -0.4 °F -14.7 °F -5.8 °F 78% 30.24 in 7.0 mi WNW 8.1 mph - N/A   Mostly Cloudy
12:13 PM -0.4 °F -15.7 °F -5.8 °F 78% 30.24 in 10.0 mi WNW 9.2 mph - N/A   Mostly Cloudy
12:33 PM -0.4 °F -14.7 °F -5.8 °F 78% 30.24 in 10.0 mi NW 8.1 mph - N/A   Clear
12:53 PM 1.4 °F -13.5 °F -5.8 °F 72% 30.25 in 10.0 mi NW 9.2 mph - N/A   Clear
1:13 PM 1.4 °F -15.3 °F -4.0 °F 78% 30.24 in 10.0 mi NW 11.5 mph - N/A   Clear
1:33 PM 1.4 °F -15.3 °F -2.2 °F 85% 30.24 in 10.0 mi NW 11.5 mph - N/A   Clear
1:53 PM 3.2 °F -11.3 °F -2.2 °F 78% 30.24 in 10.0 mi NW 9.2 mph - N/A   Clear
2:13 PM 3.2 °F -12.2 °F -2.2 °F 78% 30.23 in 10.0 mi NW 10.4 mph - N/A   Clear
2:33 PM 3.2 °F -13.1 °F -2.2 °F 78% 30.22 in 10.0 mi NW 11.5 mph - N/A   Clear
2:53 PM 3.2 °F -11.3 °F -2.2 °F 78% 30.22 in 10.0 mi WNW 9.2 mph - N/A   Clear
3:13 PM 3.2 °F -12.2 °F -2.2 °F 78% 30.21 in 10.0 mi NW 10.4 mph - N/A   Clear
3:33 PM 5.0 °F -10.0 °F -2.2 °F 72% 30.20 in 10.0 mi NW 10.4 mph - N/A   Clear
3:53 PM 5.0 °F -9.1 °F -2.2 °F 72% 30.20 in 10.0 mi NNW 9.2 mph - N/A   Clear
4:13 PM 6.8 °F -7.8 °F -2.2 °F 67% 30.20 in 10.0 mi North 10.4 mph - N/A   Clear
4:33 PM 5.0 °F -10.0 °F -2.2 °F 72% 30.20 in 10.0 mi NNW 10.4 mph - N/A   Clear
4:53 PM 6.8 °F -7.8 °F -2.2 °F 67% 30.20 in 10.0 mi NNW 10.4 mph - N/A   Clear
5:13 PM 6.8 °F -8.6 °F -2.2 °F 67% 30.20 in 10.0 mi NNW 11.5 mph - N/A   Clear
5:33 PM 6.8 °F -7.8 °F -2.2 °F 67% 30.21 in 10.0 mi NNW 10.4 mph - N/A   Clear
5:53 PM 5.0 °F -9.1 °F -2.2 °F 72% 30.21 in 10.0 mi NW 9.2 mph - N/A   Clear
6:13 PM 3.2 °F -11.3 °F -2.2 °F 78% 30.21 in 10.0 mi NW 9.2 mph - N/A   Clear
6:33 PM 5.0 °F -10.8 °F -2.2 °F 72% 30.22 in 10.0 mi North 11.5 mph - N/A   Clear
6:53 PM 3.2 °F -12.2 °F -2.2 °F 78% 30.22 in 10.0 mi NNW 10.4 mph - N/A   Clear
7:13 PM 3.2 °F -10.3 °F -2.2 °F 78% 30.23 in 10.0 mi NNW 8.1 mph - N/A   Clear
7:33 PM 3.2 °F -11.3 °F -2.2 °F 78% 30.24 in 10.0 mi NNW 9.2 mph - N/A   Clear
7:52 PM 3.2 °F -10.3 °F -4.0 °F 72% 30.24 in 10.0 mi NNW 8.1 mph - N/A   Clear
8:13 PM 1.4 °F -11.3 °F -4.0 °F 78% 30.25 in 10.0 mi North 6.9 mph - N/A   Clear
8:33 PM 1.4 °F -8.3 °F -5.8 °F 72% 30.25 in 10.0 mi North 4.6 mph - N/A   Clear
8:52 PM -0.4 °F -12.0 °F -5.8 °F 78% 30.26 in 10.0 mi NNW 5.8 mph - N/A   Clear
9:33 PM -0.4 °F -13.4 °F -5.8 °F 78% 30.28 in 10.0 mi NNW 6.9 mph - N/A   Clear
9:53 PM -0.4 °F -13.4 °F -5.8 °F 78% 30.28 in 10.0 mi NNW 6.9 mph - N/A   Clear
10:13 PM -0.4 °F - -5.8 °F 78% 30.28 in 10.0 mi Calm Calm - N/A   Clear
10:33 PM -0.4 °F -8.3 °F -5.8 °F 78% 30.28 in 10.0 mi North 3.5 mph - N/A   Clear
10:53 PM -2.2 °F -12.5 °F -5.8 °F 85% 30.28 in 10.0 mi North 4.6 mph - N/A   Clear
11:13 PM -2.2 °F - -5.8 °F 85% 30.28 in 10.0 mi Calm Calm - N/A   Clear
11:33 PM -2.2 °F - -7.6 °F 78% 30.28 in 10.0 mi Calm Calm - N/A   Clear
11:53 PM -4.0 °F - -7.6 °F 85% 30.28 in 10.0 mi Calm Calm - N/A   Clear